loading
|
Showing default

AURORA 1, 2876

Orbit data source: Space-Track

AURORA 1, 2876 is an American payload satellite that was launched on Thu, 29 Jun 1967 UTC via a THOR BURNER 2 launch vehicle from the Air Force Western Test Range (AFWTR). Payloads include a variety of satellites, spacecraft, and rockets equipped with specific instruments for various scientific and technological missions. These include communications satellites like Starlink; space stations such as the ISS; scientific satellites like the Hubble; Earth observation satellites from companies like Planet Labs, Umbra, and HawkEye 360; GPS; miniature CubeSats for education and research; and military/defense satellites.

Loading next visibility...
Loading greatness...
AURORA 1 details
Identifier
2876, 1967-065B
Orbit
Active
Last TLE update1 day ago
Origin
Flag of USONR/RICE (US)
ManufacturerRice
MissionCivil Science
Bus & MotorRICE AURORA, Unknown motor
Mass21 kg wet, 21 kg dry
Launch date (UTC)
1967-06-29 (57 years ago)
Launch vehicle
THOR BURNER 2
Launch site
Air Force Western Test Range (AFWTR)
Object type
Payload
Rocket body
Debris
Shape & HBRBox, 0.6 m
Radar Cross Section0.360 m², Medium (>0.1 m² and < 1m²)

Expand to show TLE details & history

TLE from 1 day ago
0 AURORA 1
1 02876U 67065B   24280.46996175  .00000002  00000-0  59984-3 0  9990
2 02876  90.0182 313.4161 0071730 332.4470  27.2574  8.36561159337863
Epoch: 2024-10-06T11:16Z
Definitive object data (Epoch: 2024-10-06T11:16:44.695Z)
Latitude-0.00003°
Longitude128.61841°
Altitude3,809.057 km
Speed6.276 km/s
True Right ascension20h 53m 39s
True Declination0° 00' 00"
Sunlit
Object was in daylight at TLE epoch
Predictive object data (real-time)
Latitude-37.60632°
Longitude128.63316°
Altitude3,813.295 km
Speed6.277 km/s
Apparent Right ascension22h 16m 52s
Apparent Declination-41° 41' 59"
Sunlit
Object is in daylight
Predictive observer data (real-time)
Local Sidereal Time12:40:13
Azimuth105.572° ESE
Elevation-63.014°
Doppler factor1
Orbital elements
Apogee3,943.534 km
Perigee3,796.514 km
Semi-major axis10,248.161 km
Eccentricity0.007173
Inclination90.0182°
RAAN313.4161°
Arg. of periapsis332.447°
True anomaly27.63687°
Mean anomaly27.2574°
Eccentric anomaly27.44683°
Mean motion2.09206 °/min
BSTAR0.00059984
Period172.08 mins
No data available
No data available

AURORA 1 Visibility forecast

Observer location: 39.9160978°, -105.1181434

AURORA 1 is not visible in the next 10 days
Span
Click to sort rows by Start time (UTC) header in descending order
Start Az.
Max El. time (UTC)
Max El. Az.
Max El.
End time (UTC)
End Az.